This is the latest recevied weather packets stored in our database for station/object PY5TG-13. If no packets are shown the sender has not sent any weather packets the latest 10 day(s).
| Time | Temp. | Humidity | Pressure | Rain* | Wind** | Luminosity | Snow |
|---|---|---|---|---|---|---|---|
| 1788529813 | 23.33° C | 52% | 1012.4 hPa | 0 mm | - | 154 W/m² | - |
| 1788529213 | 23.33° C | 52% | 1012.7 hPa | 0 mm | - | 139 W/m² | - |
| 1788528617 | 23.33° C | 51% | 1012.8 hPa | 0 mm | - | 185 W/m² | - |
| 1788528014 | 23.89° C | 49% | 1012.4 hPa | 0 mm | - | 305 W/m² | - |
| 1788527475 | 23.89° C | 52% | 1012.8 hPa | 0 mm | - | 331 W/m² | - |
| 1788527410 | 24.44° C | 49% | 1012.6 hPa | 0 mm | - | 320 W/m² | - |
| 1788526812 | 23.89° C | 52% | 1012.9 hPa | 0 mm | - | 306 W/m² | - |
| 1788526272 | 23.89° C | 52% | 1012.8 hPa | 0 mm | - | 301 W/m² | - |
| 1788526208 | 23.89° C | 52% | 1012.9 hPa | 0 mm | - | 290 W/m² | - |
| 1788525612 | 23.33° C | 54% | 1012.9 hPa | 0 mm | - | 276 W/m² | - |
| 1788525015 | 22.78° C | 56% | 1013 hPa | 0 mm | - | 260 W/m² | - |
| 1788524444 | 23.33° C | 54% | 1013 hPa | 0 mm | - | 244 W/m² | - |
| 1788523877 | 22.22° C | 56% | 1013 hPa | 0 mm | - | 236 W/m² | - |
| 1788523213 | 21.67° C | 57% | 1013 hPa | 0 mm | - | 210 W/m² | - |
| 1788522014 | 21.11° C | 58% | 1013.1 hPa | 0 mm | - | 177 W/m² | - |
| 1788520879 | 20.56° C | 60% | 1013.1 hPa | 0 mm | - | 149 W/m² | - |
| 1788520808 | 20.56° C | 59% | 1013.1 hPa | 0 mm | - | 140 W/m² | - |
| 1788520272 | 20.56° C | 61% | 1013.1 hPa | 0 mm | - | 132 W/m² | - |
| 1788520208 | 20.56° C | 62% | 1013.2 hPa | 0 mm | - | 123 W/m² | - |
| 1788519614 | 21.11° C | 60% | 1012.7 hPa | 0 mm | - | 107 W/m² | - |
| 1788519013 | 20° C | - | - | 0 mm | - | - | - |
| 1788518414 | 19.44° C | - | - | 0 mm | - | - | - |
| 1788517834 | 18.33° C | - | - | 0 mm | - | - | - |
| 1788517212 | 17.78° C | - | - | 0 mm | - | - | - |
| 1788516619 | 15.56° C | - | - | 0 mm | - | - | - |
* Rain latest hour (hover to see other rain measurements)
** Current wind speed in m/s (hover to see current wind gust speed)